Погода Карпогоры

Погода Карпогоры : погода сейчас, прогноз погоды и архив. Всё, что Вы хотите узнать о погоде Карпогоры!

Хотите узнать прогноз погоды Карпогоры? Тогда Вам сюда: Погода Карпогоры

Поиск расширенной информации на нашем сайте:

Другие новости

Новости СМИ2

Главная страница сайта

Новости сайта

03.07.2017

Напоминаем, что на нашем специализированном сайте Метеоцентр.Азия вы можете получить высокодетализированные автоматические прогнозы погоды по пунктам России, СНГ и мира в авиационном формате (включающие направление и скорость ветра, видимость, явления погоды, количество и форму облачности, нижнюю и верхнюю границу облачности).


Погода Карпогоры - сегодня

Время (UTC), дата Ветер
(°,м/с) 
Видим.   Явления Облачность Т
(°С)
Тd
(°С)
f(%) Тe
(°С)
Pmin
(гПа)
dP
(гПа)
Po
(мм)
O2
(г/м3)
Тmin Tmax R s Состояние
почвы
18 19.07.18 060 (СВ) 20000 м    ясно 
+22.6 +12.4 52 +27  1019.6  0.3  759  280           
21 19.07.18 070 (В) 20000 м    ясно 
+18.1 +11.9 67 +22  1020.3  0.7  760  285           
00 20.07.18 060 (СВ) 20000 м    ясно 
+15.4 +11.4 77 +19  1021.2  0.7  760  288           
03 20.07.18 060 (СВ) 20000 м    ясно 
+19.4 +12.9 66 +25  1021.4  0.3  760  284  +15        сухая 
06 20.07.18 080 (В) 20000 м    ясно 
+25 +14 50 +32  1020.9  -0.4  760  278           
09 20.07.18 090 (В) 20000 м    6/6 1000 м 
[Cu hum]
+27.1 +13.1 42 +32  1020.5  -0.4  760  276           
12 20.07.18 100 (В) 20000 м    6/6 1000 м 
[Cu hum]
+27.6 +10.8 35 +30  1019.6  -0.8  759  276           
15 20.07.18 140 (ЮВ) 20000 м    6/4 1000 м верхняя 
[Cu hum|Cs]
+27.9 +10.7 34 +30  1018.7  -0.8  759  275    +28.6       
18 20.07.18 090 (В) 20000 м    1/0 
+23.2 +12.8 52 +28  1018.9  0.1  759  279           
21 20.07.18 110 (В) 20000 м    1/0 
[]
+19.9 +13.1 65 +26  1019.9  0.8  759  283           
00 21.07.18 130 (ЮВ) 20000 м    ясно 
+17.6 +12.8 73 +24  1020.5  0.5  760  285           
03 21.07.18 120 (ЮВ) 20000 м    ясно 
+20.3 +12.9 62 +25  1020  -0.4  759  282  +17.1        сухая 
06 21.07.18 140 (ЮВ) 20000 м    ясно 
+25.4 +14.6 51 +33  1019.3  -0.6  759  277           
09 21.07.18 160 (Ю) 20000 м    3/3 1000 м 
[Cu med, cong]
+27.3 +13.1 42 +33  1018.7  -0.6  759  275           
12 21.07.18 150 (ЮВ) 20000 м    4/4 1000 м 
[Cu med, cong]
+28.3 +12.2 37 +32  1017.6  -1  758  274           
15 21.07.18 120 (ЮВ) 20000 м    1/1 1000 м 
[Cu hum]
+27.8 +11.5 36 +31  1016.7  -0.9  757  275    +29       
18 21.07.18 130 (ЮВ) 20000 м    ясно 
+23.9 +10.3 42 +25  1017.2  0.4  757  279           
21 21.07.18 150 (ЮВ) 20000 м    ясно 
+19.4 +10.9 58 +22  1018.6  1.2  758  283           
00 22.07.18 120 (ЮВ) 20000 м    ясно 
+15.4 +11 75 +18  1018.9  0.2  759  287           
03 22.07.18 150 (ЮВ) 20000 м    ясно 
+18 +12.1 68 +23  1019.1  0.2  759  285  +15.3        сухая 
06 22.07.18 150 (ЮВ) 20000 м    3/0 верхняя 
[Ci sp]
+23.8 +13.7 53 +30  1018.7  -0.2  759  278           
09 22.07.18 170 (Ю) 20000 м    8/8 1000 м 
[Cu hum]
+26.5 +11.2 38 +29  1018  -0.6  758  276           
12 22.07.18 190 (Ю) 20000 м    3/0 средняя, верхняя 
[Ac trans|Cs]
+28 +9.6 32 +28  1016.7  -1.2  757  275           
15 22.07.18 170 (Ю) 3{10}  20000 м    4/0 верхняя 
[Cs]
+27.5 +9.5 32 +28  1015.7  -0.9  756  275    +28.2       
18 22.07.18 190 (Ю) 20000 м    ясно 
+22.1 +11.5 51 +25  1016.5  0.6  757  280           
Время (UTC), дата Ветер
(°,м/с) 
Видим.   Явления Облачность Т
(°С)
Тd
(°С)
f(%) Тe
(°С)
Pmin
(гПа)
dP
(гПа)
Po
(мм)
O2
(г/м3)
Тmin Tmax R s Состояние
почвы

Для получения пояснительной информации подведите курсор к названию столбца.

ПОГОДА Карпогоры - архив

Всё, что Вы хотите узнать о погоде Карпогоры - удобно и подробно!

Выберите нужную дату (начиная с 1 января 2015* года) и нажмите кнопку "Найти".
Будут отображены архивные сводки погоды по пункту Карпогоры, начиная с указанной даты.


Отображать данные в формате CSV (для использования в таблицах Excel)


Внимание! Наш архив погоды предназначен исключительно для личного некоммерческого использования в познавательных целях. Если Вам необходимы официальные справки о состоянии погоды (для производственных, юридических, коммерческих и т.п. целей), обращайтесь в органы Росгидромета.

*Примечание: данная дата относится к архиву по метеостанциям СССР (Россия, СНГ, Балтия).
Архив по метеостанциям Зарубежной Европы и Азии (кроме Китая) хранится 10 дней, по другим регионам земного шара (Китай, Африка, Америка, Австралия, Океания) - 1 день.

Карпогоры - район местоположения метеостанции


Название, широта, долгота, высота метеостанции:
Карпогоры 64°ш. 44.4°д. 60 м над ур. моря [Российская Федерация]

Дополнительная информация

В oтличие oт бoльшинства пoгoдных сайтoв мы публикуем пoдрoбную метеoинфoрмацию в детальнoм прoфессиoнальнoм фoрмате.

Характеристики температуры и влажнoсти вoздуха измеряются на высoте 2 м в тени вдали oт зданий и деревьев.
Скoрoсть ветра измеряется на высoте 10 м (на урoвне рoста челoвека скoрoсть ветра ниже в 1.5-2 раза). Если метеoстанция нахoдится в гoрoде или в лесу, тo скoрoсть ветра занижена на 2-4 м/с пo сравнению с oткрытым местoм. Скoрoсть ветра над акватoриями крупных рек и oзёр, а также на вершинах хoлмoв на 2-5 м/с выше, чем в oбычных услoвиях.
Атмoсфернoе давление в разных тoчках местнoсти мoжет значительнo oтличаться oт давления на метеoстанции, в зависимoсти oт услoвий рельефа (при пoдъёме на 10 м давление пoнижается примернo на 1 мм рт.ст.).